EW9532 Weather Reports


Display with metric or nautical units.
time (UTC)temp
F
wind
direction
speed
MPH
gust
MPH
rain 1hr
in
rain 24hr
in
rain mn
in
humidity
%
barometer
mb
20260508204901 90 270 0.0 0.0 0.00 0.20 0.19 69 1008.9
20260508204627 89 270 0.0 2.0 0.00 0.20 0.19 69 1008.8
20260508204547 89 0 0.0 3.0 0.00 0.20 0.19 69 1009.3
20260508203901 89 270 0.0 2.0 0.00 0.20 0.19 70 1009.2
20260508203401 89 15 0.0 0.0 0.00 0.20 0.19 69 1009.3
20260508203127 89 15 0.0 0.0 0.00 0.20 0.19 69 1009.3
20260508203059 88 0 0.0 0.0 0.00 0.20 0.19 69 1009.5
20260508202400 89 15 0.0 0.0 0.00 0.20 0.19 69 1009.4
20260508201901 89 15 0.0 0.0 0.00 0.20 0.19 69 1009.5
20260508201548 89 0 0.0 1.0 0.00 0.20 0.19 70 1009.8
20260508201400 89 290 0.0 0.0 0.00 0.20 0.19 71 1009.5
20260508200901 89 290 0.0 0.0 0.00 0.20 0.19 69 1009.6
20260508200401 89 259 0.0 2.0 0.00 0.20 0.19 70 1009.8
20260508200125 89 259 0.0 2.0 0.00 0.20 0.19 71 1009.9
20260508200105 89 0 0.0 2.0 0.00 0.20 0.19 70 1010.2
20260508195400 89 207 0.0 0.0 0.00 0.20 0.19 70 1010.0
20260508194902 90 221 0.0 0.0 0.00 0.20 0.19 71 1010.1
20260508194551 89 0 0.0 1.0 0.00 0.20 0.19 71 1010.3
20260508194354 88 221 0.0 1.0 0.00 0.20 0.19 74 1010.0
20260508194111 87 221 0.0 2.0 0.00 0.20 0.19 72 1010.2
20260508193344 88 31 0.0 2.0 0.00 0.20 0.19 74 1010.3
20260508193104 87 0 0.0 2.0 0.00 0.20 0.19 71 1010.6
20260508192843 88 90 0.0 0.0 0.00 0.20 0.19 73 1010.3
20260508192344 87 90 0.0 1.0 0.00 0.20 0.19 74 1010.4
20260508191841 87 38 0.0 1.0 0.00 0.20 0.19 75 1010.4
20260508191547 86 0 0.0 0.0 0.00 0.20 0.19 75 1010.7
20260508191341 87 143 0.0 1.0 0.00 0.20 0.19 76 1010.4
20260508190841 86 143 0.0 1.0 0.00 0.20 0.19 77 1010.4
20260508190339 85 122 0.0 0.0 0.00 0.20 0.19 77 1010.5
20260508190050 85 0 0.0 0.0 0.00 0.20 0.19 77 1010.9
20260508185836 86 122 0.0 0.0 0.00 0.20 0.19 76 1010.6
20260508185334 85 122 0.0 0.0 0.00 0.20 0.19 78 1010.8
20260508184830 84 122 0.0 1.0 0.00 0.20 0.19 80 1010.9
20260508184552 83 0 0.0 1.0 0.00 0.20 0.19 80 1011.2
20260508184329 83 122 0.0 1.0 0.00 0.20 0.19 80 1010.9
20260508183829 83 239 0.0 1.0 0.00 0.20 0.19 81 1011.0
20260508183327 83 281 0.0 0.0 0.00 0.20 0.19 81 1011.1
20260508183106 82 0 0.0 0.0 0.00 0.20 0.19 81 1011.4
20260508182827 83 212 0.0 0.0 0.00 0.20 0.19 81 1011.2
20260508182320 83 212 0.0 1.0 0.00 0.20 0.19 82 1011.6
20260508181819 82 86 0.0 1.0 0.00 0.20 0.19 83 1011.3
20260508181608 82 0 0.0 2.0 0.00 0.20 0.19 82 1011.6
20260508181312 82 274 0.0 3.0 0.00 0.20 0.19 84 1011.4
20260508180811 81 228 0.0 3.0 0.00 0.20 0.19 85 1011.4
20260508180310 80 276 0.0 4.0 0.00 0.20 0.19 86 1011.6
20260508180049 79 0 0.0 3.0 0.00 0.20 0.19 88 1011.8
20260508175805 79 276 0.0 4.0 0.00 0.20 0.19 90 1011.7
20260508175306 79 235 0.0 4.0 0.00 0.20 0.19 91 1011.8
20260508175246 78 27 1.0 4.0 0.00 0.20 0.19 93 1011.7
20260508174547 77 0 0.0 1.0 0.00 0.20 0.19 94 1012.0
20260508174303 77 27 0.0 1.0 0.00 0.20 0.19 95 1011.9
20260508173802 76 26 0.0 0.0 0.00 0.20 0.19 95 1011.9
20260508173302 76 26 0.0 0.0 0.00 0.20 0.19 95 1012.1
20260508173047 75 0 0.0 0.0 0.00 0.20 0.19 95 1012.3
20260508172802 76 26 0.0 0.0 0.00 0.20 0.19 96 1012.2
20260508172301 75 26 0.0 0.0 0.00 0.20 0.19 96 1012.4
20260508171800 75 26 0.0 2.0 0.00 0.20 0.19 97 1012.4
20260508171549 74 0 0.0 1.0 0.00 0.20 0.19 96 1012.7
20260508171301 74 26 0.0 2.0 0.00 0.20 0.19 96 1012.5
20260508171024 74 238 0.0 0.0 0.00 0.20 0.19 97 1012.5
20260508170532 74 238 0.0 0.0 0.00 0.20 0.19 97 1012.5
20260508170107 73 238 0.0 1.0 0.00 0.20 0.19 97 1012.7
20260508170050 73 0 0.0 1.0 0.00 0.20 0.19 96 1012.8
20260508165235 73 238 0.0 1.0 0.00 0.20 0.19 97 1012.8
20260508164731 73 197 0.0 0.0 0.00 0.20 0.19 97 1013.0
20260508164713 73 197 0.0 0.0 0.00 0.20 0.19 96 1013.1
20260508164553 72 0 0.0 0.0 0.00 0.20 0.19 96 1013.3
20260508163730 73 197 0.0 0.0 0.00 0.20 0.19 96 1013.1
20260508163229 73 197 0.0 0.0 0.00 0.20 0.19 96 1013.3
20260508163053 73 0 0.0 0.0 0.00 0.20 0.19 95 1013.5
20260508162729 74 197 0.0 0.0 0.00 0.20 0.19 96 1013.1
20260508162510 74 197 0.0 0.0 0.00 0.20 0.19 97 1012.9
20260508161939 74 197 0.0 0.0 0.00 0.20 0.19 97 1013.1
20260508161655 74 197 0.0 0.0 0.00 0.20 0.19 97 1013.0
20260508161550 73 0 0.0 0.0 0.00 0.20 0.19 96 1013.3
20260508161153 74 197 0.0 0.0 0.00 0.20 0.19 97 1013.0
20260508160425 74 197 0.0 0.0 0.00 0.20 0.19 97 1013.2
20260508160053 73 0 0.0 0.0 0.00 0.20 0.19 97 1013.4
20260508155706 74 197 0.0 0.0 0.00 0.20 0.19 97 1013.2
20260508155203 73 197 0.0 0.0 0.00 0.20 0.19 97 1013.3
20260508154701 73 197 0.0 0.0 0.00 0.20 0.19 97 1013.3
20260508154549 73 0 0.0 0.0 0.00 0.20 0.19 97 1013.5
20260508154201 73 197 0.0 0.0 0.00 0.20 0.19 97 1013.4
20260508153701 73 197 0.0 0.0 0.00 0.20 0.19 97 1013.3
20260508153200 73 197 0.0 0.0 0.00 0.20 0.19 97 1013.4
20260508153055 72 0 0.0 0.0 0.00 0.20 0.19 97 1013.7
20260508152701 73 197 0.0 0.0 0.00 0.20 0.19 97 1013.6
20260508152202 73 197 0.0 0.0 0.00 0.20 0.19 97 1013.5
20260508151700 72 197 0.0 0.0 0.00 0.20 0.19 97 1013.6
20260508151550 72 0 0.0 0.0 0.00 0.20 0.19 97 1013.7
20260508151201 72 197 0.0 0.0 0.00 0.20 0.19 97 1013.5
20260508150701 72 197 0.0 0.0 0.00 0.20 0.19 97 1013.6
20260508150201 72 197 0.0 0.0 0.00 0.20 0.19 97 1013.6
20260508150109 71 0 0.0 0.0 0.00 0.20 0.19 97 1013.6
20260508145701 72 197 0.0 0.0 0.00 0.20 0.19 97 1013.4
20260508145201 72 197 0.0 0.0 0.00 0.20 0.19 97 1013.3
20260508144701 71 197 0.0 0.0 0.00 0.20 0.19 97 1013.4
20260508144553 71 0 0.0 0.0 0.00 0.20 0.19 97 1013.7
20260508144203 72 197 0.0 0.0 0.00 0.20 0.19 97 1013.6
20260508143703 72 197 0.0 0.0 0.00 0.20 0.19 97 1013.3
20260508143202 71 197 0.0 0.0 0.00 0.20 0.19 97 1013.2
20260508143052 71 0 0.0 0.0 0.00 0.20 0.19 97 1013.4
20260508142702 71 197 0.0 0.0 0.00 0.20 0.19 97 1013.3
20260508142202 71 197 0.0 0.0 0.00 0.20 0.19 97 1013.3
20260508141922 71 197 0.0 0.0 0.00 0.20 0.19 97 1013.4
20260508141600 70 0 0.0 0.0 0.00 0.20 0.19 97 1013.6
20260508141201 71 197 0.0 0.0 0.00 0.20 0.19 97 1013.4
20260508140702 71 197 0.0 0.0 0.00 0.20 0.19 97 1013.3
20260508140201 71 197 0.0 0.0 0.00 0.20 0.19 97 1013.3
20260508140059 70 0 0.0 0.0 0.00 0.20 0.19 97 1013.3
20260508135927 71 197 0.0 0.0 0.00 0.20 0.19 97 1013.1
20260508135201 71 197 0.0 0.0 0.00 0.20 0.19 97 1013.2
20260508134701 71 197 0.0 0.0 0.00 0.20 0.19 97 1013.2
20260508134548 70 0 0.0 0.0 0.00 0.20 0.19 97 1013.5
20260508134202 71 197 0.0 0.0 0.00 0.20 0.19 97 1013.2
20260508133702 71 197 0.0 0.0 0.00 0.20 0.19 97 1013.3
20260508133202 71 197 0.0 0.0 0.00 0.20 0.19 97 1013.3
20260508133045 70 0 0.0 0.0 0.00 0.20 0.19 97 1013.5
20260508132702 70 197 0.0 0.0 0.00 0.20 0.19 97 1013.5
20260508132202 71 197 0.0 0.0 0.00 0.20 0.19 97 1013.4
20260508131702 70 197 0.0 0.0 0.00 0.20 0.19 97 1013.5
20260508131556 70 0 0.0 0.0 0.00 0.20 0.19 97 1013.6
20260508131202 70 197 0.0 0.0 0.00 0.20 0.19 97 1013.4
20260508130702 70 197 0.0 0.0 0.00 0.20 0.19 97 1013.5
20260508130202 70 197 0.0 0.0 0.00 0.20 0.19 97 1013.6
20260508130047 70 0 0.0 0.0 0.00 0.20 0.19 97 1013.8
20260508125922 70 197 0.0 0.0 0.00 0.20 0.19 97 1013.5
20260508125202 70 197 0.0 0.0 0.00 0.20 0.19 97 1013.5
20260508124701 70 191 0.0 0.0 0.00 0.20 0.19 97 1013.7
20260508124548 69 0 0.0 0.0 0.00 0.20 0.19 97 1013.8
20260508124201 70 191 0.0 0.0 0.00 0.20 0.19 97 1013.6
20260508123950 70 191 0.0 0.0 0.00 0.20 0.19 97 1013.5
20260508123201 70 191 0.0 0.0 0.00 0.20 0.19 97 1013.5
20260508123047 69 0 0.0 0.0 0.00 0.20 0.19 97 1013.6
20260508122919 70 191 0.0 0.0 0.00 0.20 0.19 97 1013.4
20260508122201 70 191 0.0 1.0 0.00 0.20 0.19 97 1013.3
20260508121701 70 191 0.0 1.0 0.00 0.20 0.19 97 1013.2
20260508121550 70 0 0.0 0.0 0.00 0.20 0.19 97 1013.3
20260508121201 70 207 0.0 0.0 0.01 0.20 0.19 97 1013.1
20260508120703 70 207 0.0 0.0 0.02 0.20 0.19 97 1012.9
20260508120202 70 288 0.0 1.0 0.03 0.20 0.19 97 1013.0
20260508120053 70 0 0.0 1.0 0.03 0.20 0.19 97 1013.2
20260508115702 70 288 0.0 1.0 0.04 0.17 0.19 97 1012.9
20260508115425 70 227 0.0 0.0 0.04 0.17 0.19 97 1012.8
20260508114702 71 227 0.0 0.0 0.04 0.17 0.19 97 1012.7
20260508114553 70 0 0.0 0.0 0.04 0.20 0.19 97 1013.0
20260508114202 71 227 0.0 0.0 0.04 0.17 0.19 97 1012.7
20260508113703 70 227 0.0 0.0 0.04 0.17 0.19 97 1012.9
20260508113202 70 227 0.0 0.0 0.04 0.17 0.19 97 1012.7
20260508113121 70 0 0.0 0.0 0.04 0.20 0.19 97 1012.9
20260508112702 70 227 0.0 0.0 0.04 0.17 0.19 97 1012.5
20260508112202 70 227 0.0 0.0 0.05 0.17 0.19 97 1012.6
20260508111702 70 227 0.0 0.0 0.05 0.17 0.19 97 1012.4
20260508111550 70 0 0.0 0.0 0.05 0.20 0.19 97 1012.5
20260508111421 70 227 0.0 0.0 0.05 0.17 0.18 97 1012.5
20260508110701 70 227 0.0 0.0 0.04 0.17 0.17 97 1012.8
20260508110201 70 227 0.0 0.0 0.04 0.17 0.16 97 1012.9
20260508110049 70 0 0.0 0.0 0.04 0.17 0.16 96 1013.1
20260508105701 70 227 0.0 0.0 0.04 0.13 0.15 97 1013.2
20260508105201 70 227 0.0 1.0 0.05 0.13 0.15 97 1013.4
20260508104701 70 227 0.0 1.0 0.05 0.13 0.15 97 1013.3
20260508104555 70 0 0.0 1.0 0.05 0.16 0.15 96 1013.6
20260508104200 71 256 0.0 0.0 0.05 0.13 0.15 97 1013.2
20260508103925 71 256 0.0 0.0 0.05 0.13 0.15 97 1013.1
20260508103202 71 256 0.0 2.0 0.05 0.13 0.15 97 1012.9
20260508103103 70 0 0.0 2.0 0.05 0.16 0.15 96 1013.1
20260508102703 71 256 0.0 2.0 0.05 0.13 0.15 97 1012.8
20260508102202 71 304 0.0 0.0 0.04 0.13 0.14 97 1012.6
20260508101702 71 304 0.0 0.0 0.04 0.13 0.14 97 1012.6
20260508101551 71 0 0.0 0.0 0.04 0.15 0.14 97 1012.8
20260508101202 71 304 0.0 0.0 0.03 0.13 0.13 97 1012.1
20260508100703 71 304 0.0 0.0 0.03 0.13 0.13 97 1012.2
20260508100202 71 304 0.0 0.0 0.02 0.13 0.12 97 1012.3
20260508100052 71 0 0.0 0.0 0.02 0.13 0.12 96 1012.7
20260508095703 71 304 0.0 1.0 0.01 0.11 0.11 97 1012.6
20260508095202 71 304 0.0 1.0 0.00 0.11 0.10 97 1013.0
20260508094702 71 132 0.0 0.0 0.00 0.11 0.10 97 1012.9
20260508094552 71 0 0.0 0.0 0.00 0.11 0.10 96 1013.2
20260508094151 71 132 0.0 0.0 0.00 0.11 0.10 97 1012.9
20260508093651 72 132 0.0 0.0 0.00 0.11 0.10 97 1013.0
20260508093144 72 132 0.0 0.0 0.00 0.11 0.10 97 1013.1
20260508093056 71 0 0.0 0.0 0.00 0.11 0.10 96 1013.2
20260508092637 72 132 0.0 0.0 0.00 0.11 0.10 97 1012.9
20260508092136 72 132 0.0 0.0 0.00 0.11 0.10 97 1012.8
20260508091636 72 132 0.0 0.0 0.00 0.11 0.10 97 1012.6
20260508091549 72 0 0.0 0.0 0.00 0.11 0.10 96 1012.7
20260508091130 72 132 0.0 0.0 0.00 0.11 0.10 97 1012.6
20260508090631 72 132 0.0 0.0 0.00 0.11 0.10 97 1012.4
20260508090131 72 132 0.0 0.0 0.00 0.11 0.10 97 1012.1
20260508090115 73 132 0.0 0.0 0.00 0.11 0.10 97 1012.1
20260508090051 72 0 0.0 0.0 0.00 0.11 0.10 96 1012.3
20260508085130 73 132 0.0 0.0 0.00 0.11 0.10 97 1012.2
20260508084630 73 185 0.0 0.0 0.00 0.11 0.10 97 1012.2
20260508084555 73 0 0.0 0.0 0.00 0.11 0.10 96 1012.3
20260508084130 73 185 0.0 0.0 0.00 0.11 0.10 97 1012.3
20260508083629 73 185 0.0 0.0 0.00 0.11 0.10 97 1012.4
20260508083129 73 185 0.0 0.0 0.00 0.11 0.10 97 1012.1
20260508083052 73 0 0.0 0.0 0.00 0.11 0.10 96 1012.4
20260508082630 74 185 0.0 0.0 0.00 0.11 0.10 97 1012.3
20260508082129 74 185 0.0 0.0 0.00 0.11 0.10 97 1012.5
20260508081629 74 185 0.0 0.0 0.00 0.11 0.10 97 1012.6
20260508081556 73 0 0.0 0.0 0.00 0.11 0.10 96 1012.8
20260508081129 74 185 0.0 0.0 0.00 0.11 0.10 97 1012.9
20260508080628 74 185 0.0 0.0 0.00 0.11 0.10 97 1013.2
20260508080130 74 185 0.0 0.0 0.00 0.11 0.10 97 1013.3
20260508080049 73 0 0.0 0.0 0.00 0.11 0.10 97 1013.4
20260508075629 74 185 0.0 0.0 0.00 0.11 0.10 97 1013.3
20260508075129 74 185 0.0 0.0 0.00 0.11 0.10 97 1013.1
20260508074629 74 185 0.0 0.0 0.00 0.11 0.10 97 1013.1
20260508074550 73 0 0.0 0.0 0.00 0.11 0.10 96 1013.2
20260508074147 74 185 0.0 0.0 0.00 0.11 0.10 97 1012.8
20260508074135 74 185 0.0 0.0 0.00 0.11 0.10 97 1013.0
20260508073130 74 185 0.0 0.0 0.00 0.11 0.10 97 1012.7
20260508073048 73 0 0.0 0.0 0.00 0.11 0.10 96 1012.9
20260508072630 74 185 0.0 0.0 0.01 0.11 0.10 97 1012.5
20260508072131 74 185 0.0 0.0 0.01 0.11 0.10 97 1012.6
20260508071631 74 185 0.0 0.0 0.02 0.11 0.10 97 1012.5
20260508071553 73 0 0.0 0.0 0.02 0.11 0.10 96 1012.8
20260508071131 73 185 0.0 0.0 0.03 0.11 0.10 97 1013.0
20260508070629 73 185 0.0 0.0 0.04 0.11 0.10 97 1013.3
20260508070129 73 185 0.0 2.0 0.05 0.11 0.10 97 1013.5
20260508070054 73 0 0.0 1.0 0.05 0.11 0.10 96 1013.7
20260508065629 73 185 0.0 2.0 0.07 0.05 0.10 97 1013.7
20260508065129 73 33 0.0 1.0 0.07 0.05 0.10 97 1013.6
20260508064628 73 252 0.0 1.0 0.08 0.05 0.10 97 1013.5
20260508064606 72 0 0.0 1.0 0.08 0.11 0.10 96 1013.7
20260508064128 73 269 0.0 1.0 0.08 0.05 0.10 97 1013.5
20260508063628 73 296 0.0 1.0 0.08 0.05 0.10 97 1013.7
20260508063129 73 294 0.0 0.0 0.09 0.05 0.10 97 1013.9
20260508063048 72 0 0.0 0.0 0.09 0.11 0.10 96 1014.0
20260508062850 73 294 0.0 0.0 0.08 0.05 0.09 96 1014.0
20260508062623 73 294 0.0 0.0 0.08 0.05 0.09 96 1013.8
20260508061629 73 294 0.0 0.0 0.07 0.05 0.08 96 1013.5
20260508061557 72 0 0.0 0.0 0.07 0.09 0.08 96 1013.8
20260508061128 73 294 0.0 0.0 0.06 0.05 0.07 96 1013.9
20260508060629 73 294 0.0 0.0 0.06 0.05 0.06 96 1014.3
20260508060131 73 294 0.0 0.0 0.05 0.05 0.04 96 1014.8
20260508060050 72 0 0.0 0.0 0.04 0.05 0.04 96 1015.1
20260508055919 73 294 0.0 0.0 0.03 0.01 0.03 96 1015.2
20260508055131 73 294 0.0 0.0 0.03 0.01 0.02 96 1015.6
20260508054631 73 294 0.0 0.0 0.02 0.01 0.02 96 1015.9
20260508054617 72 0 0.0 0.0 0.02 0.03 0.02 96 1016.2
20260508054130 73 294 0.0 0.0 0.02 0.01 0.02 96 1016.1
20260508053629 73 294 0.0 0.0 0.02 0.01 0.02 96 1016.1
20260508053129 72 294 0.0 0.0 0.01 0.01 0.01 96 1016.0
20260508053050 72 0 0.0 0.0 0.01 0.02 0.01 96 1016.3
20260508052629 72 294 0.0 0.0 0.01 0.01 0.01 96 1015.8
20260508052129 72 294 0.0 0.0 0.01 0.01 0.01 96 1015.5
20260508051629 72 294 0.0 4.0 0.01 0.01 0.01 96 1014.9
20260508051600 72 0 0.0 3.0 0.01 0.02 0.01 95 1015.0
20260508051354 72 294 0.0 4.0 0.01 0.01 0.01 96 1014.4
20260508050629 72 309 1.0 4.0 0.00 0.01 0.00 96 1013.6
20260508050129 72 134 0.0 1.0 0.01 0.01 0.00 96 1013.7
20260508050054 71 0 0.0 2.0 0.01 0.01 0.00 95 1014.0
20260508045629 72 333 0.0 3.0 0.01 0.00 0.01 96 1014.1
20260508045129 72 44 0.0 3.0 0.01 0.00 0.01 96 1014.1
20260508044629 72 107 0.0 2.0 0.01 0.00 0.01 95 1014.3
20260508044552 71 0 0.0 2.0 0.01 0.01 0.01 95 1014.5
20260508044129 72 240 0.0 2.0 0.01 0.00 0.01 95 1014.3
20260508043628 72 148 0.0 3.0 0.01 0.00 0.01 95 1014.0
20260508043131 72 289 0.0 3.0 0.01 0.00 0.01 94 1013.6
20260508043056 71 249 0.0 3.0 0.01 0.01 0.01 94 1013.7
20260508042631 72 176 0.0 2.0 0.01 0.00 0.01 94 1013.5
20260508042130 72 77 0.0 0.0 0.01 0.00 0.01 94 1013.9
20260508041630 72 229 0.0 1.0 0.01 0.00 0.01 93 1014.0
20260508041551 72 0 0.0 1.0 0.01 0.01 0.01 93 1014.2
20260508041130 72 156 0.0 1.0 0.01 0.00 0.01 93 1013.9
20260508040629 72 27 0.0 0.0 0.01 0.00 0.01 92 1014.4
20260508040351 72 27 0.0 0.0 0.00 0.00 0.00 92 1014.6
20260508040055 72 0 0.0 2.0 0.00 0.00 0.00 91 1014.6
20260508035629 73 27 0.0 1.0 0.00 0.00 0.00 91 1014.3
20260508035129 73 27 0.0 1.0 0.00 0.00 0.00 91 1014.1
20260508034629 73 274 0.0 0.0 0.00 0.00 0.00 91 1014.1
20260508034549 72 0 0.0 1.0 0.00 0.00 0.00 90 1014.4
20260508034128 73 274 0.0 3.0 0.00 0.00 0.00 91 1014.3
20260508033629 73 86 0.0 3.0 0.00 0.00 0.00 90 1014.5
20260508033129 73 259 0.0 2.0 0.00 0.00 0.00 90 1014.4
20260508033048 72 0 0.0 2.0 0.00 0.00 0.00 90 1014.5
20260508032629 73 61 0.0 2.0 0.00 0.00 0.00 90 1014.3
20260508032129 72 268 0.0 2.0 0.00 0.00 0.00 90 1014.6
20260508032116 72 81 0.0 4.0 0.00 0.00 0.00 90 1014.6
20260508031556 72 0 0.0 4.0 0.00 0.00 0.00 90 1014.7
20260508031128 72 89 0.0 4.0 0.00 0.00 0.00 90 1014.2
20260508030628 72 276 0.0 3.0 0.00 0.00 0.00 90 1014.4
20260508030131 72 110 0.0 6.0 0.00 0.00 0.00 90 1014.3
20260508030052 72 0 0.0 5.0 0.00 0.00 0.00 89 1014.5
20260508025625 72 56 0.0 6.0 0.00 0.00 0.00 90 1014.0
20260508025125 72 252 0.0 6.0 0.00 0.00 0.00 90 1014.0
20260508024617 72 9 0.0 8.0 0.00 0.00 0.00 90 1013.9
20260508024544 72 0 0.0 11.0 0.00 0.00 0.00 89 1014.0
20260508024104 72 117 1.0 8.0 0.00 0.00 0.00 90 1013.7
20260508023604 73 143 0.0 6.0 0.00 0.00 0.00 90 1013.7
20260508023103 73 188 0.0 6.0 0.00 0.00 0.00 89 1013.8
20260508023050 72 0 0.0 6.0 0.00 0.00 0.00 89 1014.0
20260508022603 73 38 0.0 4.0 0.00 0.00 0.00 89 1014.1
20260508022103 73 231 0.0 5.0 0.00 0.00 0.00 88 1014.0
20260508021603 73 187 0.0 5.0 0.00 0.00 0.00 88 1014.1
20260508021559 73 0 0.0 5.0 0.00 0.00 0.00 87 1014.3
20260508021102 73 321 0.0 4.0 0.00 0.00 0.00 87 1014.0
20260508020602 73 65 0.0 3.0 0.00 0.00 0.00 87 1013.9
20260508020048 73 0 0.0 2.0 0.00 0.00 0.00 86 1014.3
20260508015603 73 278 0.0 2.0 0.00 0.00 0.00 87 1013.9
20260508015102 74 4 0.0 3.0 0.00 0.00 0.00 87 1013.7
20260508014602 74 4 0.0 9.0 0.00 0.00 0.00 87 1013.6
20260508014548 73 0 0.0 9.0 0.00 0.00 0.00 86 1013.8
20260508014325 74 333 0.0 9.0 0.00 0.00 0.00 87 1013.5
20260508013602 74 96 1.0 6.0 0.00 0.00 0.00 87 1013.6
20260508013102 74 252 0.0 8.0 0.00 0.00 0.00 87 1013.6
20260508013050 73 0 0.0 8.0 0.00 0.00 0.00 86 1013.8
20260508012612 74 347 0.0 7.0 0.00 0.00 0.00 87 1013.4
20260508012603 74 243 0.0 8.0 0.00 0.00 0.00 87 1013.5
20260508011602 74 212 0.0 7.0 0.00 0.00 0.00 86 1013.4
20260508011554 74 15 0.0 5.0 0.00 0.00 0.00 86 1013.6
20260508011102 74 307 0.0 6.0 0.00 0.00 0.00 86 1013.5
20260508010601 74 113 1.0 6.0 0.00 0.00 0.00 85 1013.3
20260508010351 74 235 0.0 7.0 0.00 0.00 0.00 85 1013.0
20260508010049 74 0 0.0 6.0 0.00 0.00 0.00 85 1013.3
20260508005601 74 248 0.0 7.0 0.00 0.00 0.00 85 1012.8
20260508005101 74 110 0.0 6.0 0.00 0.00 0.00 85 1012.6
20260508004601 75 21 0.0 6.0 0.00 0.00 0.00 85 1012.7
20260508004550 74 0 0.0 2.0 0.00 0.00 0.00 84 1012.9
20260508004101 75 70 0.0 6.0 0.00 0.00 0.00 85 1012.8
20260508003601 75 221 0.0 7.0 0.00 0.00 0.00 85 1012.6
20260508003101 75 273 0.0 7.0 0.00 0.00 0.00 84 1012.7
20260508003049 75 167 0.0 6.0 0.00 0.00 0.00 83 1012.9
20260508002603 75 126 0.0 5.0 0.00 0.00 0.00 83 1013.0
20260508002102 76 124 0.0 5.0 0.00 0.00 0.00 83 1013.0
20260508001818 76 156 0.0 0.0 0.00 0.00 0.00 83 1013.1
20260508001547 75 0 0.0 2.0 0.00 0.00 0.00 82 1013.3
20260508001047 76 84 0.0 2.0 0.00 0.00 0.00 83 1013.1
20260508000538 76 322 0.0 6.0 0.00 0.00 0.00 83 1012.8
20260508000105 75 0 0.0 9.0 0.00 0.00 0.00 82 1012.9
20260508000035 76 224 1.0 6.0 0.00 0.00 0.00 82 1012.7
20260507235536 76 288 1.0 6.0 0.00 0.00 0.00 82 1012.6
20260507235034 76 289 0.0 6.0 0.00 0.00 0.00 82 1012.3
20260507234550 76 342 0.0 6.0 0.00 0.00 0.00 80 1012.5
20260507234534 77 176 0.0 6.0 0.00 0.00 0.00 81 1012.3
20260507234035 77 331 0.0 3.0 0.00 0.00 0.00 80 1012.4
20260507233535 77 70 0.0 3.0 0.00 0.00 0.00 80 1012.2
20260507233051 77 0 0.0 6.0 0.00 0.00 0.00 80 1012.3
20260507233033 77 89 0.0 4.0 0.00 0.00 0.00 81 1012.1
20260507232535 77 89 1.0 5.0 0.00 0.00 0.00 80 1012.2
20260507232036 78 293 0.0 6.0 0.00 0.00 0.00 80 1012.1
20260507231558 77 0 0.0 7.0 0.00 0.00 0.00 80 1012.2
20260507231536 78 219 0.0 7.0 0.00 0.00 0.00 80 1012.0
20260507231035 78 207 0.0 7.0 0.00 0.00 0.00 80 1012.0
20260507230535 78 272 0.0 2.0 0.00 0.00 0.00 80 1012.0
20260507230051 77 0 0.0 3.0 0.00 0.00 0.00 79 1012.3
20260507230035 78 3 0.0 2.0 0.00 0.00 0.00 80 1012.1
20260507225534 78 322 0.0 2.0 0.00 0.00 0.00 80 1012.1
20260507225016 78 59 0.0 3.0 0.00 0.00 0.00 80 1012.3
20260507224551 78 0 0.0 3.0 0.00 0.00 0.00 79 1012.7
20260507224510 78 166 0.0 3.0 0.00 0.00 0.00 79 1012.4
20260507224004 78 316 0.0 4.0 0.00 0.00 0.00 79 1012.7
20260507223740 78 243 0.0 4.0 0.00 0.00 0.00 79 1012.5
20260507223048 78 0 0.0 8.0 0.00 0.00 0.00 79 1012.7
20260507223004 78 127 0.0 7.0 0.00 0.00 0.00 79 1012.5
20260507222723 78 37 0.0 7.0 0.00 0.00 0.00 79 1012.6
20260507222003 79 252 1.0 5.0 0.00 0.00 0.00 78 1012.6
20260507221558 79 0 0.0 6.0 0.00 0.00 0.00 78 1012.8
20260507221502 79 267 1.0 5.0 0.00 0.00 0.00 78 1012.6
20260507221000 79 327 0.0 5.0 0.00 0.00 0.00 78 1012.5
20260507220501 80 138 0.0 4.0 0.00 0.00 0.00 78 1012.5
20260507220053 79 251 0.0 5.0 0.00 0.00 0.00 77 1012.8
20260507220000 80 253 0.0 5.0 0.00 0.00 0.00 77 1012.6
20260507215500 80 126 1.0 5.0 0.00 0.00 0.00 77 1012.6
20260507215003 81 283 0.0 4.0 0.00 0.00 0.00 76 1012.6
20260507214554 80 0 0.0 3.0 0.00 0.00 0.00 75 1012.9
20260507214503 81 328 1.0 4.0 0.00 0.00 0.00 75 1012.7
20260507214003 81 345 0.0 3.0 0.00 0.00 0.00 76 1012.8
20260507213502 82 305 0.0 4.0 0.00 0.00 0.00 74 1012.8
20260507213048 82 0 0.0 10.0 0.00 0.00 0.00 73 1012.8
20260507213002 82 27 0.0 8.0 0.00 0.00 0.00 74 1012.5
20260507212502 82 169 0.0 8.0 0.00 0.00 0.00 74 1012.5
20260507212003 82 25 0.0 5.0 0.00 0.00 0.00 74 1012.3
20260507211724 82 319 0.0 8.0 0.00 0.00 0.00 75 1012.4
20260507211558 81 0 0.0 8.0 0.00 0.00 0.00 75 1012.6
20260507211003 82 188 1.0 8.0 0.00 0.00 0.00 74 1012.3
20260507210515 82 144 1.0 7.0 0.00 0.00 0.00 74 1012.4
20260507210051 82 0 0.0 7.0 0.00 0.00 0.00 73 1012.5
20260507210000 83 265 1.0 6.0 0.00 0.00 0.00 74 1012.4
20260507205500 83 137 1.0 6.0 0.00 0.00 0.00 74 1012.4